Location: Newark
(47.5347°N, 5.5339°E)
Time: 20:21:33
(UTC+00:00)

ISS - Pass Details

Date: 30 September 2019
Orbit: 411 x 421 km, 51.6° (Epoch: 16 October)

Event Time Altitude Azimuth Distance (km) Brightness Sun altitude
Rises 19:21:00 0° 291° (WNW) 2,347 1.6 -20.9°
Reaches altitude 10° 19:23:07 10° 297° (WNW) 1,483 0.2 -21.3°
Enters shadow 19:25:57 48° 344° (NNW) 547 -3.0 -21.7°
